Regional Weather Roundup
Issued by NWS

Home | Current Version | Previous Version | Graphics & Text | Print | Product List | Glossary On
Versions: 1 2 3 4 5 6 7 8 9 10 11 12 13 14 15 16 17 18 19 20 21 22 23 24 25 26 27 28 29 30 31 32 33 34 35 36 37 38 39 40 41 42 43 44 45 46 47 48 49 50
000
ASUS43 KDTX 011801
RWRMI
MICHIGAN HOURLY REGIONAL WEATHER ROUNDUP
NATIONAL WEATHER SERVICE DETROIT/PONTIAC MI
200 PM EDT SAT OCT 01 2016

NOTE: "FAIR" INDICATES FEW OR NO CLOUDS BELOW 12,000 FEET WITH NO
SIGNIFICANT WEATHER AND/OR OBSTRUCTION TO VISIBILITY.

MIZ047>049-052>055-059>063-066>070-074>076-081>083-011900-
SOUTHEAST LOWER MICHIGAN

CITY           SKY/WX    TMP DP  RH WIND       PRES   REMARKS
ADRIAN         CLOUDY    65  55  70 SE10      30.03F
6HR MIN TEMP:  59; 6HR MAX TEMP:  65;

ALMA           CLOUDY    61  61  97 E3        30.06F
ANN ARBOR      MOSUNNY   65  54  67 S5        30.02F
BAD AXE        CLOUDY    60  59  96 SE5       30.07F
6HR MIN TEMP:  57; 6HR MAX TEMP:  60;

CARO           CLOUDY    60  59  97 CALM      30.05F FOG
DETROIT CITY   PTSUNNY   67  58  72 SW7       30.03F
6HR MIN TEMP:  60; 6HR MAX TEMP:  68; 6HR PCP:  0.01;

DETROIT        CLOUDY    68  57  68 S8        30.04F
6HR MIN TEMP:  60; 6HR MAX TEMP:  69; 6HR PCP: TRACE;

FLINT          CLOUDY    64  59  83 E5        30.04F
6HR MIN TEMP:  57; 6HR MAX TEMP:  64;

GROSSE ILE     MOSUNNY   65  56  70 S7        30.03F
6HR MIN TEMP:  61; 6HR MAX TEMP:  67;

HILLSDALE      CLOUDY    63  52  67 SE6       30.02F
HOWELL         CLOUDY    66  58  73 S5        30.03F

CITY           SKY/WX    TMP DP  RH WIND       PRES   REMARKS
JACKSON        PTSUNNY   66  54  65 SE8       30.02F
6HR MIN TEMP:  58; 6HR MAX TEMP:  68;

LAMBERTVILLE   PTSUNNY   67  54  61 CALM      30.03F
6HR MIN TEMP:  60; 6HR MAX TEMP:  68;

LANSING        PTSUNNY   65  58  78 E6        30.03F
6HR MIN TEMP:  57; 6HR MAX TEMP:  66; 6HR PCP:  0.01;

LAPEER         CLOUDY    61  59  93 E8        30.05F
6HR MIN TEMP:  56; 6HR MAX TEMP:  61;

MASON          MOSUNNY   68  55  62 E3        30.02F
MONROE         MOSUNNY   67  56  69 SE5       30.03F
6HR MIN TEMP:  61; 6HR MAX TEMP:  67;

MT. CLEMENS    PTSUNNY   64  62  93 NE8       30.03S
6HR MIN TEMP:  58; 6HR MAX TEMP:  65; 6HR PCP:  0.02;

PONTIAC        PTSUNNY   63  59  87 E6        30.03F
6HR MIN TEMP:  57; 6HR MAX TEMP:  63; 6HR PCP: TRACE;

PORT HURON     DRIZZLE   61  59  94 E3        30.05F
TRI CITIES     CLOUDY    62  59  90 E7        30.06F
6HR MIN TEMP:  58; 6HR MAX TEMP:  62;

MIDLAND        LGT RAIN  61  60  96 NE6       30.06F
6HR MIN TEMP:  57; 6HR MAX TEMP:  61;

TROY           CLOUDY    65  60  82 CALM      30.05F
SAGINAW HB     CLOUDY    61  59  94 NE6       30.05F
$$
MIZ043>046-050>051-056>058-064>065-071>073-077>080-011900-
SOUTHWEST LOWER MICHIGAN

CITY           SKY/WX    TMP DP  RH WIND       PRES   REMARKS
BATTLE CREEK   PTSUNNY   67  54  63 S8        30.01F
6HR MIN TEMP:  58; 6HR MAX TEMP:  69; 6HR PCP: TRACE;

BENTON HARBOR  CLOUDY    67  56  67 E12       29.98F
6HR MIN TEMP:  60; 6HR MAX TEMP:  69; 6HR PCP:  0.02;

BIG RAPIDS     CLOUDY    60  59  98 E7        30.06S
6HR MIN TEMP:  57; 6HR MAX TEMP:  60; 6HR PCP:  0.03;

COLDWATER      RAIN      62  55  77 SE3       30.02S
6HR MIN TEMP:  58; 6HR MAX TEMP:  65;

FREMONT        CLOUDY    61  58  92 E7        30.04F
HOLLAND        PTSUNNY   65  58  78 E7        30.01F
6HR MIN TEMP:  58; 6HR MAX TEMP:  65; 6HR PCP:  0.24;

GRAND RAPIDS   PTSUNNY   64  58  80 NE6       30.02F
6HR MIN TEMP:  57; 6HR MAX TEMP:  64; 6HR PCP:  0.15;

IONIA          CLOUDY    64  57  78 E5        30.02F
6HR MIN TEMP:  56; 6HR MAX TEMP:  65; 6HR PCP:  0.04;

KALAMAZOO      PTSUNNY   67  54  63 S7        30.01F
6HR MIN TEMP:  58; 6HR MAX TEMP:  69; 6HR PCP:  0.01;

LUDINGTON      CLOUDY    62  58  88 E7        30.04F
6HR MIN TEMP:  55; 6HR MAX TEMP:  62;

MARSHALL       PTSUNNY   66  53  62 SE7       30.01F
6HR MIN TEMP:  57; 6HR MAX TEMP:  68;

MOUNT PLEASANT CLOUDY    60  59  96 E5        30.06S
6HR MIN TEMP:  57; 6HR MAX TEMP:  60; 6HR PCP:  0.01;

MUSKEGON       CLOUDY    62  59  90 NE8       30.03F
6HR MIN TEMP:  57; 6HR MAX TEMP:  63; 6HR PCP:  0.19;

SOUTH HAVEN    PTSUNNY   67  59  74 E6        29.99F
$$
MIZ016>042-011900-
NORTHERN LOWER MICHIGAN

CITY           SKY/WX    TMP DP  RH WIND       PRES   REMARKS
ALPENA         LGT RAIN  59  57  93 E7        30.11F FOG
6HR MIN TEMP:  57; 6HR MAX TEMP:  59; 6HR PCP:  0.11;

BEAVER ISLAND  CLOUDY    58  57  94 E7        30.13F
6HR MIN TEMP:  56; 6HR MAX TEMP:  59;

BELLAIRE       CLOUDY    64  56  77 NE8       30.09F
6HR MIN TEMP:  57; 6HR MAX TEMP:  64;

CADILLAC       CLOUDY    58  56  93 E9        30.08S FOG
CHARLEVOIX     CLOUDY    60  56  85 E10       30.14S
FRANKFORT      CLOUDY    62  55  79 CALM      30.08F
GAYLORD        CLOUDY    59  55  87 NE7       30.11F FOG
6HR MIN TEMP:  55; 6HR MAX TEMP:  59; 6HR PCP:  0.09;

GRAYLING       CLOUDY    61  57  85 E12       30.10F
6HR MIN TEMP:  55; 6HR MAX TEMP:  61;

HARBOR SPRINGS CLOUDY    58  56  93 E9        30.12S FOG
HOUGHTON LAKE  CLOUDY    61  57  87 E10       30.09F
6HR MIN TEMP:  55; 6HR MAX TEMP:  61; 6HR PCP:  0.01;

MANISTEE       CLOUDY    61  57  87 NE9       30.06F
OSCODA         LGT RAIN  59  59  99 E6        30.09F
6HR MIN TEMP:  57; 6HR MAX TEMP:  59;

PELLSTON       CLOUDY    58  55  90 E9        30.13  FOG
6HR MIN TEMP:  57; 6HR MAX TEMP:  59; 6HR PCP:  0.07;

ROGERS CITY    CLOUDY    58  56  92 E6        30.14F FOG
TRAVERSE CITY  CLOUDY    63  57  81 NE7       30.07F
6HR MIN TEMP:  60; 6HR MAX TEMP:  63; 6HR PCP:  0.01;

$$
MIZ007>008-015-011900-
EASTERN UPPER MICHIGAN

CITY           SKY/WX    TMP DP  RH WIND       PRES   REMARKS
KINROSS        CLOUDY    62  50  64 E14       30.15F
6HR MIN TEMP:  55; 6HR MAX TEMP:  63;

MACKINAC ISLAN CLOUDY    59  53  80 E7G17     30.13F
NEWBERRY       CLOUDY    61  55  81 CALM      30.14F
6HR MIN TEMP:  53; 6HR MAX TEMP:  61; 6HR PCP:  0.01;

S. S. MARIE    CLOUDY    65  50  58 VRB6      30.15F
6HR MIN TEMP:  57; 6HR MAX TEMP:  65;

MUNISING         N/A     64  57  78 NE12      30.14F
6HR MIN TEMP:  54; 6HR MAX TEMP:  65;

$$
MIZ004>006-011>014-085-011900-
CENTRAL UPPER MICHIGAN

CITY           SKY/WX    TMP DP  RH WIND       PRES   REMARKS
MANISTIQUE     CLOUDY    58  55  92 NE5       30.14F FOG
6HR MIN TEMP:  55; 6HR MAX TEMP:  59; 6HR PCP:  0.02;

ESCANABA       LGT RAIN  59  56  89 NE6       30.14F
6HR MIN TEMP:  56; 6HR MAX TEMP:  62; 6HR PCP:  0.03;

MENOMINEE      RAIN      59  57  93 NE10      30.12F FOG
6HR MIN TEMP:  58; 6HR MAX TEMP:  62; 6HR PCP:  0.07;

SAWYER-GWINN   PTSUNNY   61  52  72 NE9       30.17F
$$
MIZ001>003-009>011-084-011900-
WESTERN UPPER MICHIGAN

CITY           SKY/WX    TMP DP  RH WIND       PRES   REMARKS
IRON MOUNTAIN  CLOUDY    65  48  54 NE10      30.13F
6HR MIN TEMP:  54; 6HR MAX TEMP:  67; 6HR PCP: TRACE;

HOUGHTON       CLOUDY    63  53  70 E5        30.18F
6HR MIN TEMP:  57; 6HR MAX TEMP:  63;

COPPER HARBOR    N/A     61  56  83 E6        30.18F
6HR MIN TEMP:  52; 6HR MAX TEMP:  63;

IRONWOOD       CLOUDY    64  54  69 N7        30.18F
6HR MIN TEMP:  46; 6HR MAX TEMP:  65;

$$

ABBREVIATIONS USED IN REMARKS
   TC - TEMPERATURE IN CELSIUS
  WCI - WIND CHILL INDEX
   HX - HEAT INDEX
  VSB - VISIBILITY




USA.gov is the U.S. government's official web portal to all federal, state and local government web resources and services.